STARLINK-35144

Last updated on Tue Oct 07 2025 00:02:06 GMT+0000 (Coordinated Universal Time)

1 65538U 25200U 25279.50003471 -.01544881 00000+0 -33082-1 0 9990 2 65538 97.6035 346.2157 0001887 61.8204 53.9330 15.47733408 5765

Satellite not in orbit

STARLINK-35144